Index of /20260504/WXO-DD/model_gdps/15km/12/204
Name Last modified Size Description
Parent Directory -
20260504T12Z_MSC_GDPS_AbsoluteVorticity_IsbL-0200_LatLon0.15_PT204H.grib2 2026-05-04 16:52 1.2M
20260504T12Z_MSC_GDPS_AbsoluteVorticity_IsbL-0250_LatLon0.15_PT204H.grib2 2026-05-04 16:52 1.3M
20260504T12Z_MSC_GDPS_AbsoluteVorticity_IsbL-0500_LatLon0.15_PT204H.grib2 2026-05-04 16:52 1.2M
20260504T12Z_MSC_GDPS_AbsoluteVorticity_IsbL-0700_LatLon0.15_PT204H.grib2 2026-05-04 16:52 1.3M
20260504T12Z_MSC_GDPS_AbsoluteVorticity_IsbL-0850_LatLon0.15_PT204H.grib2 2026-05-04 16:52 1.6M
20260504T12Z_MSC_GDPS_AirTemp-Max_AGL-2m_LatLon0.15_PT204H.grib2 2026-05-04 16:52 747K
20260504T12Z_MSC_GDPS_AirTemp-Min_AGL-2m_LatLon0.15_PT204H.grib2 2026-05-04 16:52 795K
20260504T12Z_MSC_GDPS_AirTemp_AGL-120m_LatLon0.15_PT204H.grib2 2026-05-04 16:52 909K
20260504T12Z_MSC_GDPS_AirTemp_AGL-2m_LatLon0.15_PT204H.grib2 2026-05-04 16:52 1.0M
20260504T12Z_MSC_GDPS_AirTemp_AGL-40m_LatLon0.15_PT204H.grib2 2026-05-04 16:52 814K
20260504T12Z_MSC_GDPS_AirTemp_AGL-80m_LatLon0.15_PT204H.grib2 2026-05-04 16:52 919K
20260504T12Z_MSC_GDPS_AirTemp_IsbL-0001_LatLon0.15_PT204H.grib2 2026-05-04 16:52 670K
20260504T12Z_MSC_GDPS_AirTemp_IsbL-0005_LatLon0.15_PT204H.grib2 2026-05-04 16:52 693K
20260504T12Z_MSC_GDPS_AirTemp_IsbL-0010_LatLon0.15_PT204H.grib2 2026-05-04 16:52 699K
20260504T12Z_MSC_GDPS_AirTemp_IsbL-0020_LatLon0.15_PT204H.grib2 2026-05-04 16:52 784K
20260504T12Z_MSC_GDPS_AirTemp_IsbL-0030_LatLon0.15_PT204H.grib2 2026-05-04 16:52 833K
20260504T12Z_MSC_GDPS_AirTemp_IsbL-0050_LatLon0.15_PT204H.grib2 2026-05-04 16:52 878K
20260504T12Z_MSC_GDPS_AirTemp_IsbL-0100_LatLon0.15_PT204H.grib2 2026-05-04 16:52 961K
20260504T12Z_MSC_GDPS_AirTemp_IsbL-0150_LatLon0.15_PT204H.grib2 2026-05-04 16:52 1.0M
20260504T12Z_MSC_GDPS_AirTemp_IsbL-0175_LatLon0.15_PT204H.grib2 2026-05-04 16:52 964K
20260504T12Z_MSC_GDPS_AirTemp_IsbL-0200_LatLon0.15_PT204H.grib2 2026-05-04 16:52 1.0M
20260504T12Z_MSC_GDPS_AirTemp_IsbL-0225_LatLon0.15_PT204H.grib2 2026-05-04 16:52 1.0M
20260504T12Z_MSC_GDPS_AirTemp_IsbL-0250_LatLon0.15_PT204H.grib2 2026-05-04 16:52 1.0M
20260504T12Z_MSC_GDPS_AirTemp_IsbL-0275_LatLon0.15_PT204H.grib2 2026-05-04 16:52 1.0M
20260504T12Z_MSC_GDPS_AirTemp_IsbL-0300_LatLon0.15_PT204H.grib2 2026-05-04 16:52 1.0M
20260504T12Z_MSC_GDPS_AirTemp_IsbL-0350_LatLon0.15_PT204H.grib2 2026-05-04 16:52 937K
20260504T12Z_MSC_GDPS_AirTemp_IsbL-0400_LatLon0.15_PT204H.grib2 2026-05-04 16:52 952K
20260504T12Z_MSC_GDPS_AirTemp_IsbL-0450_LatLon0.15_PT204H.grib2 2026-05-04 16:52 1.0M
20260504T12Z_MSC_GDPS_AirTemp_IsbL-0500_LatLon0.15_PT204H.grib2 2026-05-04 16:52 775K
20260504T12Z_MSC_GDPS_AirTemp_IsbL-0550_LatLon0.15_PT204H.grib2 2026-05-04 16:52 808K
20260504T12Z_MSC_GDPS_AirTemp_IsbL-0600_LatLon0.15_PT204H.grib2 2026-05-04 16:52 899K
20260504T12Z_MSC_GDPS_AirTemp_IsbL-0650_LatLon0.15_PT204H.grib2 2026-05-04 16:52 928K
20260504T12Z_MSC_GDPS_AirTemp_IsbL-0700_LatLon0.15_PT204H.grib2 2026-05-04 16:52 954K
20260504T12Z_MSC_GDPS_AirTemp_IsbL-0750_LatLon0.15_PT204H.grib2 2026-05-04 16:52 1.0M
20260504T12Z_MSC_GDPS_AirTemp_IsbL-0800_LatLon0.15_PT204H.grib2 2026-05-04 16:52 1.1M
20260504T12Z_MSC_GDPS_AirTemp_IsbL-0850_LatLon0.15_PT204H.grib2 2026-05-04 16:52 1.1M
20260504T12Z_MSC_GDPS_AirTemp_IsbL-0875_LatLon0.15_PT204H.grib2 2026-05-04 16:52 1.1M
20260504T12Z_MSC_GDPS_AirTemp_IsbL-0900_LatLon0.15_PT204H.grib2 2026-05-04 16:52 1.1M
20260504T12Z_MSC_GDPS_AirTemp_IsbL-0925_LatLon0.15_PT204H.grib2 2026-05-04 16:52 1.1M
20260504T12Z_MSC_GDPS_AirTemp_IsbL-0950_LatLon0.15_PT204H.grib2 2026-05-04 16:52 1.1M
20260504T12Z_MSC_GDPS_AirTemp_IsbL-0970_LatLon0.15_PT204H.grib2 2026-05-04 16:52 1.1M
20260504T12Z_MSC_GDPS_AirTemp_IsbL-0985_LatLon0.15_PT204H.grib2 2026-05-04 16:52 1.1M
20260504T12Z_MSC_GDPS_AirTemp_IsbL-1000_LatLon0.15_PT204H.grib2 2026-05-04 16:52 1.1M
20260504T12Z_MSC_GDPS_AirTemp_IsbL-1015_LatLon0.15_PT204H.grib2 2026-05-04 16:52 1.1M
20260504T12Z_MSC_GDPS_Albedo_Sfc_LatLon0.15_PT204H.grib2 2026-05-04 16:52 247K
20260504T12Z_MSC_GDPS_CAPE_Sfc_LatLon0.15_PT204H.grib2 2026-05-04 16:52 3.9M
20260504T12Z_MSC_GDPS_CIN_Sfc_LatLon0.15_PT204H.grib2 2026-05-04 16:52 2.7M
20260504T12Z_MSC_GDPS_CloudWater_EAtm_LatLon0.15_PT204H.grib2 2026-05-04 16:52 544K
20260504T12Z_MSC_GDPS_ConvectivePrecip-Accum_Sfc_LatLon0.15_PT204H.grib2 2026-05-04 16:52 4.0M
20260504T12Z_MSC_GDPS_DewPointDepression_AGL-2m_LatLon0.15_PT204H.grib2 2026-05-04 16:52 764K
20260504T12Z_MSC_GDPS_DewPointDepression_IsbL-0010_LatLon0.15_PT204H.grib2 2026-05-04 16:52 86K
20260504T12Z_MSC_GDPS_DewPointDepression_IsbL-0020_LatLon0.15_PT204H.grib2 2026-05-04 16:52 83K
20260504T12Z_MSC_GDPS_DewPointDepression_IsbL-0030_LatLon0.15_PT204H.grib2 2026-05-04 16:52 97K
20260504T12Z_MSC_GDPS_DewPointDepression_IsbL-0050_LatLon0.15_PT204H.grib2 2026-05-04 16:52 369K
20260504T12Z_MSC_GDPS_DewPointDepression_IsbL-0100_LatLon0.15_PT204H.grib2 2026-05-04 16:52 382K
20260504T12Z_MSC_GDPS_DewPointDepression_IsbL-0150_LatLon0.15_PT204H.grib2 2026-05-04 16:52 481K
20260504T12Z_MSC_GDPS_DewPointDepression_IsbL-0175_LatLon0.15_PT204H.grib2 2026-05-04 16:52 590K
20260504T12Z_MSC_GDPS_DewPointDepression_IsbL-0200_LatLon0.15_PT204H.grib2 2026-05-04 16:52 689K
20260504T12Z_MSC_GDPS_DewPointDepression_IsbL-0225_LatLon0.15_PT204H.grib2 2026-05-04 16:52 781K
20260504T12Z_MSC_GDPS_DewPointDepression_IsbL-0250_LatLon0.15_PT204H.grib2 2026-05-04 16:52 862K
20260504T12Z_MSC_GDPS_DewPointDepression_IsbL-0275_LatLon0.15_PT204H.grib2 2026-05-04 16:52 883K
20260504T12Z_MSC_GDPS_DewPointDepression_IsbL-0300_LatLon0.15_PT204H.grib2 2026-05-04 16:52 927K
20260504T12Z_MSC_GDPS_DewPointDepression_IsbL-0350_LatLon0.15_PT204H.grib2 2026-05-04 16:52 955K
20260504T12Z_MSC_GDPS_DewPointDepression_IsbL-0400_LatLon0.15_PT204H.grib2 2026-05-04 16:52 1.0M
20260504T12Z_MSC_GDPS_DewPointDepression_IsbL-0450_LatLon0.15_PT204H.grib2 2026-05-04 16:52 1.0M
20260504T12Z_MSC_GDPS_DewPointDepression_IsbL-0500_LatLon0.15_PT204H.grib2 2026-05-04 16:52 1.0M
20260504T12Z_MSC_GDPS_DewPointDepression_IsbL-0550_LatLon0.15_PT204H.grib2 2026-05-04 16:52 1.0M
20260504T12Z_MSC_GDPS_DewPointDepression_IsbL-0600_LatLon0.15_PT204H.grib2 2026-05-04 16:52 1.1M
20260504T12Z_MSC_GDPS_DewPointDepression_IsbL-0650_LatLon0.15_PT204H.grib2 2026-05-04 16:52 1.1M
20260504T12Z_MSC_GDPS_DewPointDepression_IsbL-0700_LatLon0.15_PT204H.grib2 2026-05-04 16:52 1.1M
20260504T12Z_MSC_GDPS_DewPointDepression_IsbL-0750_LatLon0.15_PT204H.grib2 2026-05-04 16:52 1.1M
20260504T12Z_MSC_GDPS_DewPointDepression_IsbL-0800_LatLon0.15_PT204H.grib2 2026-05-04 16:52 1.2M
20260504T12Z_MSC_GDPS_DewPointDepression_IsbL-0850_LatLon0.15_PT204H.grib2 2026-05-04 16:52 1.1M
20260504T12Z_MSC_GDPS_DewPointDepression_IsbL-0875_LatLon0.15_PT204H.grib2 2026-05-04 16:52 1.1M
20260504T12Z_MSC_GDPS_DewPointDepression_IsbL-0900_LatLon0.15_PT204H.grib2 2026-05-04 16:52 1.1M
20260504T12Z_MSC_GDPS_DewPointDepression_IsbL-0925_LatLon0.15_PT204H.grib2 2026-05-04 16:52 1.0M
20260504T12Z_MSC_GDPS_DewPointDepression_IsbL-0950_LatLon0.15_PT204H.grib2 2026-05-04 16:52 1.0M
20260504T12Z_MSC_GDPS_DewPointDepression_IsbL-0970_LatLon0.15_PT204H.grib2 2026-05-04 16:52 1.0M
20260504T12Z_MSC_GDPS_DewPointDepression_IsbL-0985_LatLon0.15_PT204H.grib2 2026-05-04 16:52 1.0M
20260504T12Z_MSC_GDPS_DewPointDepression_IsbL-1000_LatLon0.15_PT204H.grib2 2026-05-04 16:52 967K
20260504T12Z_MSC_GDPS_DewPointDepression_IsbL-1015_LatLon0.15_PT204H.grib2 2026-05-04 16:52 903K
20260504T12Z_MSC_GDPS_DewPoint_AGL-2m_LatLon0.15_PT204H.grib2 2026-05-04 16:52 602K
20260504T12Z_MSC_GDPS_DownwardLongwaveRadiationFlux-Accum_Sfc_LatLon0.15_PT204H.grib2 2026-05-04 16:52 717K
20260504T12Z_MSC_GDPS_DownwardShortwaveRadiationFlux-Accum_NTAtm_LatLon0.15_PT204H.grib2 2026-05-04 16:52 253K
20260504T12Z_MSC_GDPS_DownwardShortwaveRadiationFlux-Accum_Sfc_LatLon0.15_PT204H.grib2 2026-05-04 16:52 882K
20260504T12Z_MSC_GDPS_FreezingRain-Accum12h_Sfc_LatLon0.15_PT204H.grib2 2026-05-04 16:52 145K
20260504T12Z_MSC_GDPS_FreezingRain-Accum24h_Sfc_LatLon0.15_PT204H.grib2 2026-05-04 16:52 200K
20260504T12Z_MSC_GDPS_FreezingRain-Accum6h_Sfc_LatLon0.15_PT204H.grib2 2026-05-04 16:52 95K
20260504T12Z_MSC_GDPS_FreezingRain-Accum_Sfc_LatLon0.15_PT204H.grib2 2026-05-04 16:52 528K
20260504T12Z_MSC_GDPS_GeopotentialHeight_IsbL-0001_LatLon0.15_PT204H.grib2 2026-05-04 16:52 461K
20260504T12Z_MSC_GDPS_GeopotentialHeight_IsbL-0005_LatLon0.15_PT204H.grib2 2026-05-04 16:52 356K
20260504T12Z_MSC_GDPS_GeopotentialHeight_IsbL-0010_LatLon0.15_PT204H.grib2 2026-05-04 16:52 479K
20260504T12Z_MSC_GDPS_GeopotentialHeight_IsbL-0020_LatLon0.15_PT204H.grib2 2026-05-04 16:52 464K
20260504T12Z_MSC_GDPS_GeopotentialHeight_IsbL-0030_LatLon0.15_PT204H.grib2 2026-05-04 16:52 419K
20260504T12Z_MSC_GDPS_GeopotentialHeight_IsbL-0050_LatLon0.15_PT204H.grib2 2026-05-04 16:52 576K
20260504T12Z_MSC_GDPS_GeopotentialHeight_IsbL-0100_LatLon0.15_PT204H.grib2 2026-05-04 16:52 619K
20260504T12Z_MSC_GDPS_GeopotentialHeight_IsbL-0150_LatLon0.15_PT204H.grib2 2026-05-04 16:52 637K
20260504T12Z_MSC_GDPS_GeopotentialHeight_IsbL-0175_LatLon0.15_PT204H.grib2 2026-05-04 16:52 640K
20260504T12Z_MSC_GDPS_GeopotentialHeight_IsbL-0200_LatLon0.15_PT204H.grib2 2026-05-04 16:52 644K
20260504T12Z_MSC_GDPS_GeopotentialHeight_IsbL-0225_LatLon0.15_PT204H.grib2 2026-05-04 16:52 639K
20260504T12Z_MSC_GDPS_GeopotentialHeight_IsbL-0250_LatLon0.15_PT204H.grib2 2026-05-04 16:52 647K
20260504T12Z_MSC_GDPS_GeopotentialHeight_IsbL-0275_LatLon0.15_PT204H.grib2 2026-05-04 16:52 645K
20260504T12Z_MSC_GDPS_GeopotentialHeight_IsbL-0300_LatLon0.15_PT204H.grib2 2026-05-04 16:52 643K
20260504T12Z_MSC_GDPS_GeopotentialHeight_IsbL-0350_LatLon0.15_PT204H.grib2 2026-05-04 16:52 632K
20260504T12Z_MSC_GDPS_GeopotentialHeight_IsbL-0400_LatLon0.15_PT204H.grib2 2026-05-04 16:52 622K
20260504T12Z_MSC_GDPS_GeopotentialHeight_IsbL-0450_LatLon0.15_PT204H.grib2 2026-05-04 16:52 542K
20260504T12Z_MSC_GDPS_GeopotentialHeight_IsbL-0500_LatLon0.15_PT204H.grib2 2026-05-04 16:52 532K
20260504T12Z_MSC_GDPS_GeopotentialHeight_IsbL-0550_LatLon0.15_PT204H.grib2 2026-05-04 16:52 527K
20260504T12Z_MSC_GDPS_GeopotentialHeight_IsbL-0600_LatLon0.15_PT204H.grib2 2026-05-04 16:52 691K
20260504T12Z_MSC_GDPS_GeopotentialHeight_IsbL-0650_LatLon0.15_PT204H.grib2 2026-05-04 16:52 691K
20260504T12Z_MSC_GDPS_GeopotentialHeight_IsbL-0700_LatLon0.15_PT204H.grib2 2026-05-04 16:52 686K
20260504T12Z_MSC_GDPS_GeopotentialHeight_IsbL-0750_LatLon0.15_PT204H.grib2 2026-05-04 16:52 696K
20260504T12Z_MSC_GDPS_GeopotentialHeight_IsbL-0800_LatLon0.15_PT204H.grib2 2026-05-04 16:52 704K
20260504T12Z_MSC_GDPS_GeopotentialHeight_IsbL-0850_LatLon0.15_PT204H.grib2 2026-05-04 16:52 713K
20260504T12Z_MSC_GDPS_GeopotentialHeight_IsbL-0875_LatLon0.15_PT204H.grib2 2026-05-04 16:52 715K
20260504T12Z_MSC_GDPS_GeopotentialHeight_IsbL-0900_LatLon0.15_PT204H.grib2 2026-05-04 16:52 724K
20260504T12Z_MSC_GDPS_GeopotentialHeight_IsbL-0925_LatLon0.15_PT204H.grib2 2026-05-04 16:52 732K
20260504T12Z_MSC_GDPS_GeopotentialHeight_IsbL-0950_LatLon0.15_PT204H.grib2 2026-05-04 16:52 736K
20260504T12Z_MSC_GDPS_GeopotentialHeight_IsbL-0970_LatLon0.15_PT204H.grib2 2026-05-04 16:52 751K
20260504T12Z_MSC_GDPS_GeopotentialHeight_IsbL-0985_LatLon0.15_PT204H.grib2 2026-05-04 16:52 766K
20260504T12Z_MSC_GDPS_GeopotentialHeight_IsbL-1000_LatLon0.15_PT204H.grib2 2026-05-04 16:52 787K
20260504T12Z_MSC_GDPS_GeopotentialHeight_IsbL-1015_LatLon0.15_PT204H.grib2 2026-05-04 16:52 617K
20260504T12Z_MSC_GDPS_IcePellets-Accum12h_Sfc_LatLon0.15_PT204H.grib2 2026-05-04 16:52 31K
20260504T12Z_MSC_GDPS_IcePellets-Accum24h_Sfc_LatLon0.15_PT204H.grib2 2026-05-04 16:52 58K
20260504T12Z_MSC_GDPS_IcePellets-Accum6h_Sfc_LatLon0.15_PT204H.grib2 2026-05-04 16:52 18K
20260504T12Z_MSC_GDPS_IcePellets-Accum_Sfc_LatLon0.15_PT204H.grib2 2026-05-04 16:52 253K
20260504T12Z_MSC_GDPS_KIndex_Sfc_LatLon0.15_PT204H.grib2 2026-05-04 16:52 6.5M
20260504T12Z_MSC_GDPS_LatentHeatNetFlux_Sfc_LatLon0.15_PT204H.grib2 2026-05-04 16:52 669K
20260504T12Z_MSC_GDPS_LiftedIndex-MU-VT_IsbL-0500_LatLon0.15_PT204H.grib2 2026-05-04 16:52 5.4M
20260504T12Z_MSC_GDPS_NetLongwaveRadiationFlux-Accum_Sfc_LatLon0.15_PT204H.grib2 2026-05-04 16:52 905K
20260504T12Z_MSC_GDPS_NetShortwaveRadiationFlux-Accum_Sfc_LatLon0.15_PT204H.grib2 2026-05-04 16:52 862K
20260504T12Z_MSC_GDPS_O3MixingRatio_Sfc_LatLon0.15_PT204H.grib2 2026-05-04 17:19 1.9M
20260504T12Z_MSC_GDPS_O3_EAtm_LatLon0.15_PT204H.grib2 2026-05-04 17:19 2.4M
20260504T12Z_MSC_GDPS_PlanetaryBoundaryLayerHeight_Sfc_LatLon0.15_PT204H.grib2 2026-05-04 16:52 2.4M
20260504T12Z_MSC_GDPS_Precip-Accum12h_Sfc_LatLon0.15_PT204H.grib2 2026-05-04 16:52 3.8M
20260504T12Z_MSC_GDPS_Precip-Accum24h_Sfc_LatLon0.15_PT204H.grib2 2026-05-04 16:52 4.3M
20260504T12Z_MSC_GDPS_Precip-Accum6h_Sfc_LatLon0.15_PT204H.grib2 2026-05-04 16:52 3.5M
20260504T12Z_MSC_GDPS_Precip-Accum_Sfc_LatLon0.15_PT204H.grib2 2026-05-04 16:52 5.1M
20260504T12Z_MSC_GDPS_PrecipRate_Sfc_LatLon0.15_PT204H.grib2 2026-05-04 16:52 2.9M
20260504T12Z_MSC_GDPS_PrecipType-Instant_Sfc_LatLon0.15_PT204H.grib2 2026-05-04 16:52 1.5M
20260504T12Z_MSC_GDPS_Pressure_MSL_LatLon0.15_PT204H.grib2 2026-05-04 16:52 820K
20260504T12Z_MSC_GDPS_Pressure_Sfc_LatLon0.15_PT204H.grib2 2026-05-04 16:52 1.1M
20260504T12Z_MSC_GDPS_RadiativeTemp_Sfc_LatLon0.15_PT204H.grib2 2026-05-04 16:52 656K
20260504T12Z_MSC_GDPS_Rain-Accum12h_Sfc_LatLon0.15_PT204H.grib2 2026-05-04 16:52 2.5M
20260504T12Z_MSC_GDPS_Rain-Accum24h_Sfc_LatLon0.15_PT204H.grib2 2026-05-04 16:52 2.9M
20260504T12Z_MSC_GDPS_Rain-Accum6h_Sfc_LatLon0.15_PT204H.grib2 2026-05-04 16:52 2.2M
20260504T12Z_MSC_GDPS_Rain-Accum_Sfc_LatLon0.15_PT204H.grib2 2026-05-04 16:52 4.1M
20260504T12Z_MSC_GDPS_RelativeHumidity_AGL-2m_LatLon0.15_PT204H.grib2 2026-05-04 16:52 1.0M
20260504T12Z_MSC_GDPS_RelativeHumidity_IsbL-0010_LatLon0.15_PT204H.grib2 2026-05-04 16:52 148K
20260504T12Z_MSC_GDPS_RelativeHumidity_IsbL-0020_LatLon0.15_PT204H.grib2 2026-05-04 16:52 116K
20260504T12Z_MSC_GDPS_RelativeHumidity_IsbL-0030_LatLon0.15_PT204H.grib2 2026-05-04 16:52 182K
20260504T12Z_MSC_GDPS_RelativeHumidity_IsbL-0050_LatLon0.15_PT204H.grib2 2026-05-04 16:52 331K
20260504T12Z_MSC_GDPS_RelativeHumidity_IsbL-0100_LatLon0.15_PT204H.grib2 2026-05-04 16:52 487K
20260504T12Z_MSC_GDPS_RelativeHumidity_IsbL-0150_LatLon0.15_PT204H.grib2 2026-05-04 16:52 667K
20260504T12Z_MSC_GDPS_RelativeHumidity_IsbL-0175_LatLon0.15_PT204H.grib2 2026-05-04 16:52 808K
20260504T12Z_MSC_GDPS_RelativeHumidity_IsbL-0200_LatLon0.15_PT204H.grib2 2026-05-04 16:52 724K
20260504T12Z_MSC_GDPS_RelativeHumidity_IsbL-0225_LatLon0.15_PT204H.grib2 2026-05-04 16:52 804K
20260504T12Z_MSC_GDPS_RelativeHumidity_IsbL-0250_LatLon0.15_PT204H.grib2 2026-05-04 16:52 871K
20260504T12Z_MSC_GDPS_RelativeHumidity_IsbL-0275_LatLon0.15_PT204H.grib2 2026-05-04 16:52 891K
20260504T12Z_MSC_GDPS_RelativeHumidity_IsbL-0300_LatLon0.15_PT204H.grib2 2026-05-04 16:52 931K
20260504T12Z_MSC_GDPS_RelativeHumidity_IsbL-0350_LatLon0.15_PT204H.grib2 2026-05-04 16:52 945K
20260504T12Z_MSC_GDPS_RelativeHumidity_IsbL-0400_LatLon0.15_PT204H.grib2 2026-05-04 16:52 970K
20260504T12Z_MSC_GDPS_RelativeHumidity_IsbL-0450_LatLon0.15_PT204H.grib2 2026-05-04 16:52 1.0M
20260504T12Z_MSC_GDPS_RelativeHumidity_IsbL-0500_LatLon0.15_PT204H.grib2 2026-05-04 16:52 1.0M
20260504T12Z_MSC_GDPS_RelativeHumidity_IsbL-0550_LatLon0.15_PT204H.grib2 2026-05-04 16:52 1.1M
20260504T12Z_MSC_GDPS_RelativeHumidity_IsbL-0600_LatLon0.15_PT204H.grib2 2026-05-04 16:52 1.0M
20260504T12Z_MSC_GDPS_RelativeHumidity_IsbL-0650_LatLon0.15_PT204H.grib2 2026-05-04 16:52 1.1M
20260504T12Z_MSC_GDPS_RelativeHumidity_IsbL-0700_LatLon0.15_PT204H.grib2 2026-05-04 16:52 1.1M
20260504T12Z_MSC_GDPS_RelativeHumidity_IsbL-0750_LatLon0.15_PT204H.grib2 2026-05-04 16:52 1.1M
20260504T12Z_MSC_GDPS_RelativeHumidity_IsbL-0800_LatLon0.15_PT204H.grib2 2026-05-04 16:52 1.2M
20260504T12Z_MSC_GDPS_RelativeHumidity_IsbL-0850_LatLon0.15_PT204H.grib2 2026-05-04 16:52 1.2M
20260504T12Z_MSC_GDPS_RelativeHumidity_IsbL-0875_LatLon0.15_PT204H.grib2 2026-05-04 16:52 1.2M
20260504T12Z_MSC_GDPS_RelativeHumidity_IsbL-0900_LatLon0.15_PT204H.grib2 2026-05-04 16:52 1.2M
20260504T12Z_MSC_GDPS_RelativeHumidity_IsbL-0925_LatLon0.15_PT204H.grib2 2026-05-04 16:52 1.2M
20260504T12Z_MSC_GDPS_RelativeHumidity_IsbL-0950_LatLon0.15_PT204H.grib2 2026-05-04 16:52 1.2M
20260504T12Z_MSC_GDPS_RelativeHumidity_IsbL-0970_LatLon0.15_PT204H.grib2 2026-05-04 16:52 1.2M
20260504T12Z_MSC_GDPS_RelativeHumidity_IsbL-0985_LatLon0.15_PT204H.grib2 2026-05-04 16:52 1.1M
20260504T12Z_MSC_GDPS_RelativeHumidity_IsbL-1000_LatLon0.15_PT204H.grib2 2026-05-04 16:52 1.1M
20260504T12Z_MSC_GDPS_RelativeHumidity_IsbL-1015_LatLon0.15_PT204H.grib2 2026-05-04 16:52 1.0M
20260504T12Z_MSC_GDPS_RelativeVorticity_IsbL-0200_LatLon0.15_PT204H.grib2 2026-05-04 16:52 1.2M
20260504T12Z_MSC_GDPS_RelativeVorticity_IsbL-0250_LatLon0.15_PT204H.grib2 2026-05-04 16:52 1.3M
20260504T12Z_MSC_GDPS_RelativeVorticity_IsbL-0500_LatLon0.15_PT204H.grib2 2026-05-04 16:52 1.2M
20260504T12Z_MSC_GDPS_RelativeVorticity_IsbL-0700_LatLon0.15_PT204H.grib2 2026-05-04 16:52 1.3M
20260504T12Z_MSC_GDPS_RelativeVorticity_IsbL-0850_LatLon0.15_PT204H.grib2 2026-05-04 16:52 1.6M
20260504T12Z_MSC_GDPS_Runoff-Accum_Sfc_LatLon0.15_PT204H.grib2 2026-05-04 16:52 133K
20260504T12Z_MSC_GDPS_SensibleHeatNetFlux_Sfc_LatLon0.15_PT204H.grib2 2026-05-04 16:52 609K
20260504T12Z_MSC_GDPS_ShowalterIndex_IsbL-0500_LatLon0.15_PT204H.grib2 2026-05-04 16:52 6.2M
20260504T12Z_MSC_GDPS_Snow-Accum12h_Sfc_LatLon0.15_PT204H.grib2 2026-05-04 16:52 1.5M
20260504T12Z_MSC_GDPS_Snow-Accum24h_Sfc_LatLon0.15_PT204H.grib2 2026-05-04 16:52 1.5M
20260504T12Z_MSC_GDPS_Snow-Accum6h_Sfc_LatLon0.15_PT204H.grib2 2026-05-04 16:52 1.4M
20260504T12Z_MSC_GDPS_Snow-Accum_Sfc_LatLon0.15_PT204H.grib2 2026-05-04 16:52 2.1M
20260504T12Z_MSC_GDPS_SnowDensity_Sfc_LatLon0.15_PT204H.grib2 2026-05-04 16:52 259K
20260504T12Z_MSC_GDPS_SnowDepth_Sfc_LatLon0.15_PT204H.grib2 2026-05-04 16:52 1.7M
20260504T12Z_MSC_GDPS_SoilTemp_DBS-0to10cm_LatLon0.15_PT204H.grib2 2026-05-04 16:52 519K
20260504T12Z_MSC_GDPS_SoilTemp_Sfc_LatLon0.15_PT204H.grib2 2026-05-04 16:52 580K
20260504T12Z_MSC_GDPS_SoilVolumetricIceContent_Sfc_LatLon0.15_PT204H.grib2 2026-05-04 16:52 173K
20260504T12Z_MSC_GDPS_SoilVolumetricWaterContent_DBS-0to10cm_LatLon0.15_PT204H.grib2 2026-05-04 16:52 605K
20260504T12Z_MSC_GDPS_SoilVolumetricWaterContent_DBS-0to1cm_LatLon0.15_PT204H.grib2 2026-05-04 16:52 654K
20260504T12Z_MSC_GDPS_SpecificHumidity_AGL-120m_LatLon0.15_PT204H.grib2 2026-05-04 16:52 1.1M
20260504T12Z_MSC_GDPS_SpecificHumidity_AGL-2m_LatLon0.15_PT204H.grib2 2026-05-04 16:52 1.2M
20260504T12Z_MSC_GDPS_SpecificHumidity_AGL-40m_LatLon0.15_PT204H.grib2 2026-05-04 16:52 1.1M
20260504T12Z_MSC_GDPS_SpecificHumidity_AGL-80m_LatLon0.15_PT204H.grib2 2026-05-04 16:52 1.1M
20260504T12Z_MSC_GDPS_SpecificHumidity_IsbL-0001_LatLon0.15_PT204H.grib2 2026-05-04 16:52 1.2M
20260504T12Z_MSC_GDPS_SpecificHumidity_IsbL-0005_LatLon0.15_PT204H.grib2 2026-05-04 16:52 1.3M
20260504T12Z_MSC_GDPS_SpecificHumidity_IsbL-0010_LatLon0.15_PT204H.grib2 2026-05-04 16:52 1.1M
20260504T12Z_MSC_GDPS_SpecificHumidity_IsbL-0020_LatLon0.15_PT204H.grib2 2026-05-04 16:52 1.2M
20260504T12Z_MSC_GDPS_SpecificHumidity_IsbL-0030_LatLon0.15_PT204H.grib2 2026-05-04 16:52 1.1M
20260504T12Z_MSC_GDPS_SpecificHumidity_IsbL-0050_LatLon0.15_PT204H.grib2 2026-05-04 16:52 1.4M
20260504T12Z_MSC_GDPS_SpecificHumidity_IsbL-0100_LatLon0.15_PT204H.grib2 2026-05-04 16:52 1.5M
20260504T12Z_MSC_GDPS_SpecificHumidity_IsbL-0150_LatLon0.15_PT204H.grib2 2026-05-04 16:52 1.3M
20260504T12Z_MSC_GDPS_SpecificHumidity_IsbL-0175_LatLon0.15_PT204H.grib2 2026-05-04 16:52 1.3M
20260504T12Z_MSC_GDPS_SpecificHumidity_IsbL-0200_LatLon0.15_PT204H.grib2 2026-05-04 16:52 1.3M
20260504T12Z_MSC_GDPS_SpecificHumidity_IsbL-0225_LatLon0.15_PT204H.grib2 2026-05-04 16:52 1.3M
20260504T12Z_MSC_GDPS_SpecificHumidity_IsbL-0250_LatLon0.15_PT204H.grib2 2026-05-04 16:52 1.2M
20260504T12Z_MSC_GDPS_SpecificHumidity_IsbL-0275_LatLon0.15_PT204H.grib2 2026-05-04 16:52 1.3M
20260504T12Z_MSC_GDPS_SpecificHumidity_IsbL-0300_LatLon0.15_PT204H.grib2 2026-05-04 16:52 1.2M
20260504T12Z_MSC_GDPS_SpecificHumidity_IsbL-0350_LatLon0.15_PT204H.grib2 2026-05-04 16:52 1.2M
20260504T12Z_MSC_GDPS_SpecificHumidity_IsbL-0400_LatLon0.15_PT204H.grib2 2026-05-04 16:52 1.5M
20260504T12Z_MSC_GDPS_SpecificHumidity_IsbL-0450_LatLon0.15_PT204H.grib2 2026-05-04 16:52 1.3M
20260504T12Z_MSC_GDPS_SpecificHumidity_IsbL-0500_LatLon0.15_PT204H.grib2 2026-05-04 16:52 1.5M
20260504T12Z_MSC_GDPS_SpecificHumidity_IsbL-0550_LatLon0.15_PT204H.grib2 2026-05-04 16:52 1.6M
20260504T12Z_MSC_GDPS_SpecificHumidity_IsbL-0600_LatLon0.15_PT204H.grib2 2026-05-04 16:52 1.5M
20260504T12Z_MSC_GDPS_SpecificHumidity_IsbL-0650_LatLon0.15_PT204H.grib2 2026-05-04 16:52 1.6M
20260504T12Z_MSC_GDPS_SpecificHumidity_IsbL-0700_LatLon0.15_PT204H.grib2 2026-05-04 16:52 1.7M
20260504T12Z_MSC_GDPS_SpecificHumidity_IsbL-0750_LatLon0.15_PT204H.grib2 2026-05-04 16:52 1.8M
20260504T12Z_MSC_GDPS_SpecificHumidity_IsbL-0800_LatLon0.15_PT204H.grib2 2026-05-04 16:52 1.9M
20260504T12Z_MSC_GDPS_SpecificHumidity_IsbL-0850_LatLon0.15_PT204H.grib2 2026-05-04 16:52 1.9M
20260504T12Z_MSC_GDPS_SpecificHumidity_IsbL-0875_LatLon0.15_PT204H.grib2 2026-05-04 16:52 1.9M
20260504T12Z_MSC_GDPS_SpecificHumidity_IsbL-0900_LatLon0.15_PT204H.grib2 2026-05-04 16:52 1.9M
20260504T12Z_MSC_GDPS_SpecificHumidity_IsbL-0925_LatLon0.15_PT204H.grib2 2026-05-04 16:52 1.6M
20260504T12Z_MSC_GDPS_SpecificHumidity_IsbL-0950_LatLon0.15_PT204H.grib2 2026-05-04 16:52 1.6M
20260504T12Z_MSC_GDPS_SpecificHumidity_IsbL-0970_LatLon0.15_PT204H.grib2 2026-05-04 16:52 1.6M
20260504T12Z_MSC_GDPS_SpecificHumidity_IsbL-0985_LatLon0.15_PT204H.grib2 2026-05-04 16:52 1.5M
20260504T12Z_MSC_GDPS_SpecificHumidity_IsbL-1000_LatLon0.15_PT204H.grib2 2026-05-04 16:52 1.5M
20260504T12Z_MSC_GDPS_SpecificHumidity_IsbL-1015_LatLon0.15_PT204H.grib2 2026-05-04 16:52 1.5M
20260504T12Z_MSC_GDPS_SpecificHumidity_Sfc_LatLon0.15_PT204H.grib2 2026-05-04 16:52 646K
20260504T12Z_MSC_GDPS_Thickness_IsbL-0850to0700_LatLon0.15_PT204H.grib2 2026-05-04 16:52 473K
20260504T12Z_MSC_GDPS_Thickness_IsbL-1000to0500_LatLon0.15_PT204H.grib2 2026-05-04 16:52 375K
20260504T12Z_MSC_GDPS_Thickness_IsbL-1000to0850_LatLon0.15_PT204H.grib2 2026-05-04 16:52 488K
20260504T12Z_MSC_GDPS_TotalCloudCover_Sfc_LatLon0.15_PT204H.grib2 2026-05-04 16:52 833K
20260504T12Z_MSC_GDPS_TotalTotalsIndex_Sfc_LatLon0.15_PT204H.grib2 2026-05-04 16:52 6.2M
20260504T12Z_MSC_GDPS_UVIndex-ClearSky_Sfc_LatLon0.15_PT204H.grib2 2026-05-04 17:19 1.0M
20260504T12Z_MSC_GDPS_UVIndex_Sfc_LatLon0.15_PT204H.grib2 2026-05-04 17:19 1.5M
20260504T12Z_MSC_GDPS_UpwardLongwaveRadiationFlux_NTAtm_LatLon0.15_PT204H.grib2 2026-05-04 16:52 839K
20260504T12Z_MSC_GDPS_VerticalVelocity_IsbL-0200_LatLon0.15_PT204H.grib2 2026-05-04 16:52 1.2M
20260504T12Z_MSC_GDPS_VerticalVelocity_IsbL-0250_LatLon0.15_PT204H.grib2 2026-05-04 16:52 1.0M
20260504T12Z_MSC_GDPS_VerticalVelocity_IsbL-0500_LatLon0.15_PT204H.grib2 2026-05-04 16:52 1.3M
20260504T12Z_MSC_GDPS_VerticalVelocity_IsbL-0600_LatLon0.15_PT204H.grib2 2026-05-04 16:52 1.3M
20260504T12Z_MSC_GDPS_VerticalVelocity_IsbL-0700_LatLon0.15_PT204H.grib2 2026-05-04 16:52 1.4M
20260504T12Z_MSC_GDPS_VerticalVelocity_IsbL-0850_LatLon0.15_PT204H.grib2 2026-05-04 16:52 1.6M
20260504T12Z_MSC_GDPS_WindChill_Sfc_LatLon0.15_PT204H.grib2 2026-05-04 16:52 5.3M
20260504T12Z_MSC_GDPS_WindDir_AGL-10m_LatLon0.15_PT204H.grib2 2026-05-04 16:52 1.3M
20260504T12Z_MSC_GDPS_WindDir_AGL-120m_LatLon0.15_PT204H.grib2 2026-05-04 16:52 1.3M
20260504T12Z_MSC_GDPS_WindDir_AGL-40m_LatLon0.15_PT204H.grib2 2026-05-04 16:52 1.4M
20260504T12Z_MSC_GDPS_WindDir_AGL-80m_LatLon0.15_PT204H.grib2 2026-05-04 16:52 1.4M
20260504T12Z_MSC_GDPS_WindDir_IsbL-0001_LatLon0.15_PT204H.grib2 2026-05-04 16:52 660K
20260504T12Z_MSC_GDPS_WindDir_IsbL-0005_LatLon0.15_PT204H.grib2 2026-05-04 16:52 805K
20260504T12Z_MSC_GDPS_WindDir_IsbL-0010_LatLon0.15_PT204H.grib2 2026-05-04 16:52 837K
20260504T12Z_MSC_GDPS_WindDir_IsbL-0020_LatLon0.15_PT204H.grib2 2026-05-04 16:52 919K
20260504T12Z_MSC_GDPS_WindDir_IsbL-0030_LatLon0.15_PT204H.grib2 2026-05-04 16:52 930K
20260504T12Z_MSC_GDPS_WindDir_IsbL-0050_LatLon0.15_PT204H.grib2 2026-05-04 16:52 931K
20260504T12Z_MSC_GDPS_WindDir_IsbL-0100_LatLon0.15_PT204H.grib2 2026-05-04 16:52 1.0M
20260504T12Z_MSC_GDPS_WindDir_IsbL-0150_LatLon0.15_PT204H.grib2 2026-05-04 16:52 1.0M
20260504T12Z_MSC_GDPS_WindDir_IsbL-0175_LatLon0.15_PT204H.grib2 2026-05-04 16:52 1.0M
20260504T12Z_MSC_GDPS_WindDir_IsbL-0200_LatLon0.15_PT204H.grib2 2026-05-04 16:52 1.1M
20260504T12Z_MSC_GDPS_WindDir_IsbL-0225_LatLon0.15_PT204H.grib2 2026-05-04 16:52 1.1M
20260504T12Z_MSC_GDPS_WindDir_IsbL-0250_LatLon0.15_PT204H.grib2 2026-05-04 16:52 1.1M
20260504T12Z_MSC_GDPS_WindDir_IsbL-0275_LatLon0.15_PT204H.grib2 2026-05-04 16:52 1.2M
20260504T12Z_MSC_GDPS_WindDir_IsbL-0300_LatLon0.15_PT204H.grib2 2026-05-04 16:52 1.2M
20260504T12Z_MSC_GDPS_WindDir_IsbL-0350_LatLon0.15_PT204H.grib2 2026-05-04 16:52 1.2M
20260504T12Z_MSC_GDPS_WindDir_IsbL-0400_LatLon0.15_PT204H.grib2 2026-05-04 16:52 1.3M
20260504T12Z_MSC_GDPS_WindDir_IsbL-0450_LatLon0.15_PT204H.grib2 2026-05-04 16:52 1.3M
20260504T12Z_MSC_GDPS_WindDir_IsbL-0500_LatLon0.15_PT204H.grib2 2026-05-04 16:52 1.4M
20260504T12Z_MSC_GDPS_WindDir_IsbL-0550_LatLon0.15_PT204H.grib2 2026-05-04 16:52 1.4M
20260504T12Z_MSC_GDPS_WindDir_IsbL-0600_LatLon0.15_PT204H.grib2 2026-05-04 16:52 1.5M
20260504T12Z_MSC_GDPS_WindDir_IsbL-0650_LatLon0.15_PT204H.grib2 2026-05-04 16:52 1.5M
20260504T12Z_MSC_GDPS_WindDir_IsbL-0700_LatLon0.15_PT204H.grib2 2026-05-04 16:52 1.6M
20260504T12Z_MSC_GDPS_WindDir_IsbL-0750_LatLon0.15_PT204H.grib2 2026-05-04 16:52 1.7M
20260504T12Z_MSC_GDPS_WindDir_IsbL-0800_LatLon0.15_PT204H.grib2 2026-05-04 16:52 1.8M
20260504T12Z_MSC_GDPS_WindDir_IsbL-0850_LatLon0.15_PT204H.grib2 2026-05-04 16:52 1.9M
20260504T12Z_MSC_GDPS_WindDir_IsbL-0875_LatLon0.15_PT204H.grib2 2026-05-04 16:52 1.9M
20260504T12Z_MSC_GDPS_WindDir_IsbL-0900_LatLon0.15_PT204H.grib2 2026-05-04 16:52 1.9M
20260504T12Z_MSC_GDPS_WindDir_IsbL-0925_LatLon0.15_PT204H.grib2 2026-05-04 16:52 1.9M
20260504T12Z_MSC_GDPS_WindDir_IsbL-0950_LatLon0.15_PT204H.grib2 2026-05-04 16:52 1.9M
20260504T12Z_MSC_GDPS_WindDir_IsbL-0970_LatLon0.15_PT204H.grib2 2026-05-04 16:52 2.0M
20260504T12Z_MSC_GDPS_WindDir_IsbL-0985_LatLon0.15_PT204H.grib2 2026-05-04 16:52 2.0M
20260504T12Z_MSC_GDPS_WindDir_IsbL-1000_LatLon0.15_PT204H.grib2 2026-05-04 16:52 2.0M
20260504T12Z_MSC_GDPS_WindDir_IsbL-1015_LatLon0.15_PT204H.grib2 2026-05-04 16:52 2.0M
20260504T12Z_MSC_GDPS_WindGust-Max_AGL-10m_LatLon0.15_PT204H.grib2 2026-05-04 16:52 2.2M
20260504T12Z_MSC_GDPS_WindGust-Min_AGL-10m_LatLon0.15_PT204H.grib2 2026-05-04 16:52 2.2M
20260504T12Z_MSC_GDPS_WindGust_AGL-10m_LatLon0.15_PT204H.grib2 2026-05-04 16:52 2.2M
20260504T12Z_MSC_GDPS_WindSpeed_AGL-10m_LatLon0.15_PT204H.grib2 2026-05-04 16:52 1.1M
20260504T12Z_MSC_GDPS_WindSpeed_AGL-120m_LatLon0.15_PT204H.grib2 2026-05-04 16:52 1.2M
20260504T12Z_MSC_GDPS_WindSpeed_AGL-40m_LatLon0.15_PT204H.grib2 2026-05-04 16:52 1.2M
20260504T12Z_MSC_GDPS_WindSpeed_AGL-80m_LatLon0.15_PT204H.grib2 2026-05-04 16:52 1.2M
20260504T12Z_MSC_GDPS_WindSpeed_IsbL-0001_LatLon0.15_PT204H.grib2 2026-05-04 16:52 647K
20260504T12Z_MSC_GDPS_WindSpeed_IsbL-0005_LatLon0.15_PT204H.grib2 2026-05-04 16:52 690K
20260504T12Z_MSC_GDPS_WindSpeed_IsbL-0010_LatLon0.15_PT204H.grib2 2026-05-04 16:52 621K
20260504T12Z_MSC_GDPS_WindSpeed_IsbL-0020_LatLon0.15_PT204H.grib2 2026-05-04 16:52 658K
20260504T12Z_MSC_GDPS_WindSpeed_IsbL-0030_LatLon0.15_PT204H.grib2 2026-05-04 16:52 666K
20260504T12Z_MSC_GDPS_WindSpeed_IsbL-0050_LatLon0.15_PT204H.grib2 2026-05-04 16:52 896K
20260504T12Z_MSC_GDPS_WindSpeed_IsbL-0100_LatLon0.15_PT204H.grib2 2026-05-04 16:52 1.1M
20260504T12Z_MSC_GDPS_WindSpeed_IsbL-0150_LatLon0.15_PT204H.grib2 2026-05-04 16:52 1.0M
20260504T12Z_MSC_GDPS_WindSpeed_IsbL-0175_LatLon0.15_PT204H.grib2 2026-05-04 16:52 1.0M
20260504T12Z_MSC_GDPS_WindSpeed_IsbL-0200_LatLon0.15_PT204H.grib2 2026-05-04 16:52 1.1M
20260504T12Z_MSC_GDPS_WindSpeed_IsbL-0225_LatLon0.15_PT204H.grib2 2026-05-04 16:52 1.1M
20260504T12Z_MSC_GDPS_WindSpeed_IsbL-0250_LatLon0.15_PT204H.grib2 2026-05-04 16:52 1.1M
20260504T12Z_MSC_GDPS_WindSpeed_IsbL-0275_LatLon0.15_PT204H.grib2 2026-05-04 16:52 1.1M
20260504T12Z_MSC_GDPS_WindSpeed_IsbL-0300_LatLon0.15_PT204H.grib2 2026-05-04 16:52 1.1M
20260504T12Z_MSC_GDPS_WindSpeed_IsbL-0350_LatLon0.15_PT204H.grib2 2026-05-04 16:52 1.1M
20260504T12Z_MSC_GDPS_WindSpeed_IsbL-0400_LatLon0.15_PT204H.grib2 2026-05-04 16:52 1.1M
20260504T12Z_MSC_GDPS_WindSpeed_IsbL-0450_LatLon0.15_PT204H.grib2 2026-05-04 16:52 1.1M
20260504T12Z_MSC_GDPS_WindSpeed_IsbL-0500_LatLon0.15_PT204H.grib2 2026-05-04 16:52 1.1M
20260504T12Z_MSC_GDPS_WindSpeed_IsbL-0550_LatLon0.15_PT204H.grib2 2026-05-04 16:52 1.1M
20260504T12Z_MSC_GDPS_WindSpeed_IsbL-0600_LatLon0.15_PT204H.grib2 2026-05-04 16:52 1.4M
20260504T12Z_MSC_GDPS_WindSpeed_IsbL-0650_LatLon0.15_PT204H.grib2 2026-05-04 16:52 1.5M
20260504T12Z_MSC_GDPS_WindSpeed_IsbL-0700_LatLon0.15_PT204H.grib2 2026-05-04 16:52 1.5M
20260504T12Z_MSC_GDPS_WindSpeed_IsbL-0750_LatLon0.15_PT204H.grib2 2026-05-04 16:52 1.6M
20260504T12Z_MSC_GDPS_WindSpeed_IsbL-0800_LatLon0.15_PT204H.grib2 2026-05-04 16:52 1.6M
20260504T12Z_MSC_GDPS_WindSpeed_IsbL-0850_LatLon0.15_PT204H.grib2 2026-05-04 16:52 1.7M
20260504T12Z_MSC_GDPS_WindSpeed_IsbL-0875_LatLon0.15_PT204H.grib2 2026-05-04 16:52 1.8M
20260504T12Z_MSC_GDPS_WindSpeed_IsbL-0900_LatLon0.15_PT204H.grib2 2026-05-04 16:52 1.8M
20260504T12Z_MSC_GDPS_WindSpeed_IsbL-0925_LatLon0.15_PT204H.grib2 2026-05-04 16:52 1.8M
20260504T12Z_MSC_GDPS_WindSpeed_IsbL-0950_LatLon0.15_PT204H.grib2 2026-05-04 16:52 1.9M
20260504T12Z_MSC_GDPS_WindSpeed_IsbL-0970_LatLon0.15_PT204H.grib2 2026-05-04 16:52 1.9M
20260504T12Z_MSC_GDPS_WindSpeed_IsbL-0985_LatLon0.15_PT204H.grib2 2026-05-04 16:52 1.8M
20260504T12Z_MSC_GDPS_WindSpeed_IsbL-1000_LatLon0.15_PT204H.grib2 2026-05-04 16:52 1.8M
20260504T12Z_MSC_GDPS_WindSpeed_IsbL-1015_LatLon0.15_PT204H.grib2 2026-05-04 16:52 1.8M
20260504T12Z_MSC_GDPS_WindU_AGL-10m_LatLon0.15_PT204H.grib2 2026-05-04 16:52 1.3M
20260504T12Z_MSC_GDPS_WindU_AGL-120m_LatLon0.15_PT204H.grib2 2026-05-04 16:52 1.0M
20260504T12Z_MSC_GDPS_WindU_AGL-40m_LatLon0.15_PT204H.grib2 2026-05-04 16:52 966K
20260504T12Z_MSC_GDPS_WindU_AGL-80m_LatLon0.15_PT204H.grib2 2026-05-04 16:52 973K
20260504T12Z_MSC_GDPS_WindU_IsbL-0001_LatLon0.15_PT204H.grib2 2026-05-04 16:52 511K
20260504T12Z_MSC_GDPS_WindU_IsbL-0005_LatLon0.15_PT204H.grib2 2026-05-04 16:52 693K
20260504T12Z_MSC_GDPS_WindU_IsbL-0010_LatLon0.15_PT204H.grib2 2026-05-04 16:52 695K
20260504T12Z_MSC_GDPS_WindU_IsbL-0020_LatLon0.15_PT204H.grib2 2026-05-04 16:52 722K
20260504T12Z_MSC_GDPS_WindU_IsbL-0030_LatLon0.15_PT204H.grib2 2026-05-04 16:52 734K
20260504T12Z_MSC_GDPS_WindU_IsbL-0050_LatLon0.15_PT204H.grib2 2026-05-04 16:52 761K
20260504T12Z_MSC_GDPS_WindU_IsbL-0100_LatLon0.15_PT204H.grib2 2026-05-04 16:52 926K
20260504T12Z_MSC_GDPS_WindU_IsbL-0150_LatLon0.15_PT204H.grib2 2026-05-04 16:52 1.0M
20260504T12Z_MSC_GDPS_WindU_IsbL-0175_LatLon0.15_PT204H.grib2 2026-05-04 16:52 1.0M
20260504T12Z_MSC_GDPS_WindU_IsbL-0200_LatLon0.15_PT204H.grib2 2026-05-04 16:52 848K
20260504T12Z_MSC_GDPS_WindU_IsbL-0225_LatLon0.15_PT204H.grib2 2026-05-04 16:52 861K
20260504T12Z_MSC_GDPS_WindU_IsbL-0250_LatLon0.15_PT204H.grib2 2026-05-04 16:52 862K
20260504T12Z_MSC_GDPS_WindU_IsbL-0275_LatLon0.15_PT204H.grib2 2026-05-04 16:52 889K
20260504T12Z_MSC_GDPS_WindU_IsbL-0300_LatLon0.15_PT204H.grib2 2026-05-04 16:52 936K
20260504T12Z_MSC_GDPS_WindU_IsbL-0350_LatLon0.15_PT204H.grib2 2026-05-04 16:52 894K
20260504T12Z_MSC_GDPS_WindU_IsbL-0400_LatLon0.15_PT204H.grib2 2026-05-04 16:52 894K
20260504T12Z_MSC_GDPS_WindU_IsbL-0450_LatLon0.15_PT204H.grib2 2026-05-04 16:52 895K
20260504T12Z_MSC_GDPS_WindU_IsbL-0500_LatLon0.15_PT204H.grib2 2026-05-04 16:52 1.1M
20260504T12Z_MSC_GDPS_WindU_IsbL-0550_LatLon0.15_PT204H.grib2 2026-05-04 16:52 1.1M
20260504T12Z_MSC_GDPS_WindU_IsbL-0600_LatLon0.15_PT204H.grib2 2026-05-04 16:52 1.2M
20260504T12Z_MSC_GDPS_WindU_IsbL-0650_LatLon0.15_PT204H.grib2 2026-05-04 16:52 1.2M
20260504T12Z_MSC_GDPS_WindU_IsbL-0700_LatLon0.15_PT204H.grib2 2026-05-04 16:52 1.2M
20260504T12Z_MSC_GDPS_WindU_IsbL-0750_LatLon0.15_PT204H.grib2 2026-05-04 16:52 1.3M
20260504T12Z_MSC_GDPS_WindU_IsbL-0800_LatLon0.15_PT204H.grib2 2026-05-04 16:52 1.4M
20260504T12Z_MSC_GDPS_WindU_IsbL-0850_LatLon0.15_PT204H.grib2 2026-05-04 16:52 1.4M
20260504T12Z_MSC_GDPS_WindU_IsbL-0875_LatLon0.15_PT204H.grib2 2026-05-04 16:52 1.4M
20260504T12Z_MSC_GDPS_WindU_IsbL-0900_LatLon0.15_PT204H.grib2 2026-05-04 16:52 1.5M
20260504T12Z_MSC_GDPS_WindU_IsbL-0925_LatLon0.15_PT204H.grib2 2026-05-04 16:52 1.5M
20260504T12Z_MSC_GDPS_WindU_IsbL-0950_LatLon0.15_PT204H.grib2 2026-05-04 16:52 1.4M
20260504T12Z_MSC_GDPS_WindU_IsbL-0970_LatLon0.15_PT204H.grib2 2026-05-04 16:52 1.4M
20260504T12Z_MSC_GDPS_WindU_IsbL-0985_LatLon0.15_PT204H.grib2 2026-05-04 16:52 1.4M
20260504T12Z_MSC_GDPS_WindU_IsbL-1000_LatLon0.15_PT204H.grib2 2026-05-04 16:52 1.4M
20260504T12Z_MSC_GDPS_WindU_IsbL-1015_LatLon0.15_PT204H.grib2 2026-05-04 16:52 1.3M
20260504T12Z_MSC_GDPS_WindV_AGL-10m_LatLon0.15_PT204H.grib2 2026-05-04 16:52 1.3M
20260504T12Z_MSC_GDPS_WindV_AGL-120m_LatLon0.15_PT204H.grib2 2026-05-04 16:52 1.0M
20260504T12Z_MSC_GDPS_WindV_AGL-40m_LatLon0.15_PT204H.grib2 2026-05-04 16:52 966K
20260504T12Z_MSC_GDPS_WindV_AGL-80m_LatLon0.15_PT204H.grib2 2026-05-04 16:52 973K
20260504T12Z_MSC_GDPS_WindV_IsbL-0001_LatLon0.15_PT204H.grib2 2026-05-04 16:52 725K
20260504T12Z_MSC_GDPS_WindV_IsbL-0005_LatLon0.15_PT204H.grib2 2026-05-04 16:52 787K
20260504T12Z_MSC_GDPS_WindV_IsbL-0010_LatLon0.15_PT204H.grib2 2026-05-04 16:52 807K
20260504T12Z_MSC_GDPS_WindV_IsbL-0020_LatLon0.15_PT204H.grib2 2026-05-04 16:52 848K
20260504T12Z_MSC_GDPS_WindV_IsbL-0030_LatLon0.15_PT204H.grib2 2026-05-04 16:52 856K
20260504T12Z_MSC_GDPS_WindV_IsbL-0050_LatLon0.15_PT204H.grib2 2026-05-04 16:52 897K
20260504T12Z_MSC_GDPS_WindV_IsbL-0100_LatLon0.15_PT204H.grib2 2026-05-04 16:52 854K
20260504T12Z_MSC_GDPS_WindV_IsbL-0150_LatLon0.15_PT204H.grib2 2026-05-04 16:52 1.0M
20260504T12Z_MSC_GDPS_WindV_IsbL-0175_LatLon0.15_PT204H.grib2 2026-05-04 16:52 1.0M
20260504T12Z_MSC_GDPS_WindV_IsbL-0200_LatLon0.15_PT204H.grib2 2026-05-04 16:52 848K
20260504T12Z_MSC_GDPS_WindV_IsbL-0225_LatLon0.15_PT204H.grib2 2026-05-04 16:52 856K
20260504T12Z_MSC_GDPS_WindV_IsbL-0250_LatLon0.15_PT204H.grib2 2026-05-04 16:52 857K
20260504T12Z_MSC_GDPS_WindV_IsbL-0275_LatLon0.15_PT204H.grib2 2026-05-04 16:52 940K
20260504T12Z_MSC_GDPS_WindV_IsbL-0300_LatLon0.15_PT204H.grib2 2026-05-04 16:52 930K
20260504T12Z_MSC_GDPS_WindV_IsbL-0350_LatLon0.15_PT204H.grib2 2026-05-04 16:52 943K
20260504T12Z_MSC_GDPS_WindV_IsbL-0400_LatLon0.15_PT204H.grib2 2026-05-04 16:52 885K
20260504T12Z_MSC_GDPS_WindV_IsbL-0450_LatLon0.15_PT204H.grib2 2026-05-04 16:52 886K
20260504T12Z_MSC_GDPS_WindV_IsbL-0500_LatLon0.15_PT204H.grib2 2026-05-04 16:52 894K
20260504T12Z_MSC_GDPS_WindV_IsbL-0550_LatLon0.15_PT204H.grib2 2026-05-04 16:52 1.1M
20260504T12Z_MSC_GDPS_WindV_IsbL-0600_LatLon0.15_PT204H.grib2 2026-05-04 16:52 1.1M
20260504T12Z_MSC_GDPS_WindV_IsbL-0650_LatLon0.15_PT204H.grib2 2026-05-04 16:52 1.2M
20260504T12Z_MSC_GDPS_WindV_IsbL-0700_LatLon0.15_PT204H.grib2 2026-05-04 16:52 1.2M
20260504T12Z_MSC_GDPS_WindV_IsbL-0750_LatLon0.15_PT204H.grib2 2026-05-04 16:52 1.3M
20260504T12Z_MSC_GDPS_WindV_IsbL-0800_LatLon0.15_PT204H.grib2 2026-05-04 16:52 1.3M
20260504T12Z_MSC_GDPS_WindV_IsbL-0850_LatLon0.15_PT204H.grib2 2026-05-04 16:52 1.4M
20260504T12Z_MSC_GDPS_WindV_IsbL-0875_LatLon0.15_PT204H.grib2 2026-05-04 16:52 1.4M
20260504T12Z_MSC_GDPS_WindV_IsbL-0900_LatLon0.15_PT204H.grib2 2026-05-04 16:52 1.4M
20260504T12Z_MSC_GDPS_WindV_IsbL-0925_LatLon0.15_PT204H.grib2 2026-05-04 16:52 1.4M
20260504T12Z_MSC_GDPS_WindV_IsbL-0950_LatLon0.15_PT204H.grib2 2026-05-04 16:52 1.4M
20260504T12Z_MSC_GDPS_WindV_IsbL-0970_LatLon0.15_PT204H.grib2 2026-05-04 16:52 1.4M
20260504T12Z_MSC_GDPS_WindV_IsbL-0985_LatLon0.15_PT204H.grib2 2026-05-04 16:52 1.4M
20260504T12Z_MSC_GDPS_WindV_IsbL-1000_LatLon0.15_PT204H.grib2 2026-05-04 16:52 1.4M
20260504T12Z_MSC_GDPS_WindV_IsbL-1015_LatLon0.15_PT204H.grib2 2026-05-04 16:52 1.3M